Солянка

Россия / Саратовская область     51°28′42″N   50°05′46″E
темп.,
°C
ветер,
м/с
пор.,
м/с
влажн.,
%
обл.,
%
осадки,
мм/ч
давл.,
гПа
погр.,
м
26 октября, вт
вт2600:00+1ссз486912 0.0 1027292
03:00+1с486981 0.0 1028316
06:00−1ссз34796 0.0 102975
09:00+1сз23645 0.0 1031367
12:00+4з33455 0.0 1030790
15:00+5зюз45405 0.0 1029924
18:00+2зюз36515 0.0 1030119
21:00+1зюз475734 0.0 1030138
27 октября, ср
ср2700:00+1юз485827 0.0 1029169
03:000юз410605 0.0 1029189
06:000юз5106386 0.0 1028194
09:00+3юз61051100 0.0 1028347
12:00+8зюз793790 0.0 1026682
15:00+8юз6103689 0.0 1025740
18:00+5юз5124586 0.0 1024301
21:00+4юз6144585 0.0 1023333
28 октября, чт
чт2800:00+3юз715465 0.0 1022351
03:00+2юз714475 0.0 1020331
06:00+1юз7145652 0.0 1020322
09:00+4юз7124664 0.0 1020467
12:00+7зюз71040100 0.0 1019747
15:00+7зюз5946100 0.0 1018556
18:00+6юз5948100 0.0 1017385
21:00+5ююз41051100 0.0 1016275
29 октября, пт
пт2900:00+5ююз5954100 0.0 1015262
03:00+5ююз4866100 0.1 1014240
06:00+4ююз4884100 1.1 1014344
09:00+4з2392100 3.3 1015189
12:00+4ссв71095100 1.1 1018670
15:00+2ссв91494100 1.2 1022752
18:00+2ссв9136799 0.0 1026799
21:00−1св7136621 0.0 1029498
30 октября, сб
сб3000:00−2ссв610695 0.0 1032378
03:00−3св48703 0.0 1033268
06:00−4ссв35725 0.0 1034116
09:00−1с345148 0.0 1035257
12:00+3ссз33365 0.0 1035451
15:00+4зсз343859 0.0 1035259
18:00+1зсз34485 0.0 103659
21:000з34515 0.0 103654